Flag for Angola Weather past 2 weeks in Menongue, Angola

Now
72 °F

Rain. Passing clouds.


Feels Like: 76 °F
Forecast: 57 / 74 °F
Wind: 5 mph from Northeast

Location: Ondangwa

Current Time: Dec 26, 2014 at 7:35:06 AM

Latest Report: Dec 26, 2014 at 6:00 AM


Visibility: N/A

Pressure: 29.95 "Hg

Humidity: 25%

Dew point: 34 °F

Location of MenongueLocation

Historic Weather in Menongue — Graph

°F

Menongue temperature yesterday

Maximum temperature yesterday: 93 °F (at 1:00 PM)
Minimum temperature yesterday: 70 °F (at 6:00 AM)
Average temperature yesterday: 81 °F

Past Weeks' High & Low Weather Summary

 TemperatureHumidityPressure
High100 °F (Dec 23, 3:00 PM)94% (Dec 11, 7:00 AM)30.07 "Hg (Dec 11, 7:00 AM)
Low64 °F (Dec 16, 6:00 AM)7% (Dec 24, 2:00 PM)29.80 "Hg (Dec 21, 5:00 PM)
Average82 °F27%29.95 "Hg
* Reported Dec 11 7:00 AM — Dec 26 6:00 AM, Menongue, Weather by CustomWeather, © 2014

Note: Actual official high and low records may vary slightly from our data, if they occured in-between our weather recording intervals... More about our weather records

Advertising

Menongue weather history for previous 24 hours

 ConditionsComfort  
Time TempWeatherWind HumidityBarometerVisibility
6:00 AM
Dec 26
72 °FRain. Passing clouds.5 mph25%29.95 "HgN/A
4:00 AM73 °FMild.6 mph25%29.92 "HgN/A
3:00 AM75 °FMild.6 mph29%29.92 "HgN/A
2:00 AM77 °FPleasantly warm.8 mph26%29.89 "HgN/A
1:00 AM79 °FPleasantly warm.7 mph28%29.89 "HgN/A
12:00 AM81 °FPleasantly warm.5 mph16%29.89 "HgN/A
11:00 PM
Dec 25
81 °FWarm.1 mph54%29.92 "HgN/A
10:00 PM82 °FWarm.3 mph51%29.92 "HgN/A
9:00 PM82 °FWarm.2 mph48%29.92 "HgN/A
8:00 PM82 °FWarm.7 mph51%29.86 "HgN/A
6:00 PM91 °FHot.No wind23%29.80 "HgN/A
1:00 PM93 °FExtremely hot.6 mph24%29.89 "HgN/A
12:00 PM91 °FHot.5 mph23%29.92 "HgN/A
11:00 AM88 °FPleasantly warm.6 mph18%29.95 "HgN/A
10:00 AM84 °FPleasantly warm.6 mph15%29.98 "HgN/A
9:00 AM81 °FPleasantly warm.8 mph15%29.98 "HgN/A
8:00 AM77 °FPleasantly warm.10 mph15%29.98 "HgN/A
7:00 AM72 °FScattered clouds.7 mph20%29.98 "HgN/A
Weather by CustomWeather, © 2014

See weather overviewHow to use our weather pages